User: anonymous   Login
Location: Newark
(36.6333°N, 138.1833°E)
Time: 09:11:13
(UTC+00:00)
Language:

M-CUBED/EXP-1 PRIME - Orbit

View from above orbital plane
View from above orbital plane
View from above satellite
View from above satellite

Ground track
Ground track

The orbit data is extracted from the following two-line orbital elements,

1 37855U 11061F   20157.75330461  .00001403  00000-0  76348-4 0  9991
2 37855 101.7130 240.1318 0171238 109.7053 252.2721 15.06293868469917
Epoch (UTC): 05 June 2020 18:04:45
Eccentricity: 0.0171238
inclination: 101.7130°
perigee height: 429 km
apogee height: 666 km
right ascension of ascending node: 240.1318°
argument of perigee: 109.7053°
revolutions per day: 15.06293868
mean anomaly at epoch: 252.2721°
orbit number at epoch: 46991

The dashed part of the orbit path shows where the satellite is in the earth's shadow,  

DLR